Baraboo, WI

4:21 PM CST on December 08, 2016 (GMT -0600)
Baraboo Wisconsin Dells

Weather History for KDLL - September, 2014

Change the Weather History Date:

Tuesday, September 2, 2014

  Actual Average Record
Temperature  
Mean Temperature 67 °F -  
Max Temperature 79 °F 78 °F 96 °F (1953)
Min Temperature 55 °F 51 °F 40 °F (1965)
Cooling Degree Days 2    
Growing Degree Days 17 (Base 50)    
Moisture  
Dew Point 55 °F    
Average Humidity 73    
Maximum Humidity 100    
Minimum Humidity 35    
Precipitation  
Precipitation 0.00 in - - ()
Sea Level Pressure  
Sea Level Pressure 29.90 in    
Wind  
Wind Speed 3 mph (WSW)    
Max Wind Speed 12 mph    
Max Gust Speed -    
Visibility 10 miles    
Events      
Averages and records for this station are not official NWS values.
T = Trace of Precipitation, MM = Missing Value Source: NWS Daily Summary

Daily Weather History Graph

Daily Weather History Graph

Search for Another Location

Airport or City:

Trip Planner

Search our weather history database for the weather conditions in past years. The results will help you decide how hot, cold, wet, or windy it might be!

Date:

Astronomy

Sep. 02, 2014 Rise Set
Actual Time 6:24 AM CDT 7:32 PM CDT
Civil Twilight 5:54 AM CDT 8:01 PM CDT
Nautical Twilight 5:19 AM CDT 8:37 PM CDT
Astronomical Twilight 4:42 AM CDT 9:14 PM CDT
Moon 2:21 PM CDT (9/2) No Moon Set
Length of Visible Light 14h 07m
Length of Day
13h 08m
First Quarter, 53% of the Moon is Illuminated
Sep 2
First Quarter
Sep 8
Full
Sep 15
Last Quarter
Sep 24
New
Oct 1
First Quarter

Hourly Weather History & Observations

Time (CDT) Temp. Dew Point Humidity Pressure Visibility Wind Dir Wind Speed Gust Speed Precip Events Conditions
12:15 AM 61.7 °F 58.5 °F 89% 29.86 in 10.0 mi Calm Calm - N/A   Clear
12:35 AM 61.2 °F 58.5 °F 91% 29.86 in 10.0 mi Calm Calm - N/A   Clear
12:55 AM 60.8 °F 58.1 °F 91% 29.87 in 10.0 mi Calm Calm - N/A   Clear
1:15 AM 59.0 °F 57.0 °F 93% 29.87 in 10.0 mi Calm Calm - N/A   Clear
1:35 AM 59.9 °F 57.9 °F 93% 29.86 in 10.0 mi Calm Calm - N/A   Clear
1:55 AM 59.0 °F 57.0 °F 93% 29.86 in 5.0 mi Calm Calm - N/A   Clear
2:15 AM 58.6 °F 56.8 °F 94% 29.86 in 4.0 mi Calm Calm - N/A   Clear
2:35 AM 57.9 °F 56.1 °F 94% 29.86 in 1.0 mi Calm Calm - N/A   Mist
2:55 AM 56.5 °F 54.7 °F 94% 29.86 in 2.5 mi South 3.5 mph - N/A   Clear
3:20 AM 57.0 °F 55.4 °F 94% 29.86 in 7.0 mi Calm Calm - N/A   Clear
3:50 AM 57.2 °F 55.8 °F 95% 29.86 in 10.0 mi Calm Calm - N/A   Clear
4:10 AM 56.3 °F 54.5 °F 94% 29.86 in 7.0 mi South 3.5 mph - N/A   Clear
4:13 AM 55.4 °F 55.4 °F 100% 29.86 in 7.0 mi South 3.5 mph - N/A   Clear
4:33 AM 55.4 °F 55.4 °F 100% 29.86 in 10.0 mi Calm Calm - N/A   Clear
4:53 AM 55.4 °F 55.4 °F 100% 29.87 in 10.0 mi SSE 3.5 mph - N/A   Clear
5:15 AM 56.1 °F 54.3 °F 94% 29.87 in 10.0 mi Calm Calm - N/A   Clear
5:35 AM 56.1 °F 54.1 °F 93% 29.87 in 10.0 mi Calm Calm - N/A   Clear
5:50 AM 56.8 °F 54.9 °F 93% 29.87 in 10.0 mi Calm Calm - N/A   Clear
6:15 AM 55.8 °F 53.6 °F 92% 29.87 in 10.0 mi Calm Calm - N/A   Clear
6:30 AM 55.2 °F 53.2 °F 93% 29.87 in 10.0 mi Calm Calm - N/A   Clear
6:53 AM 57.2 °F 55.4 °F 94% 29.88 in 10.0 mi South 4.6 mph - N/A   Clear
7:00 AM 57.9 °F 56.3 °F 94% 29.88 in 10.0 mi Calm Calm - N/A   Clear
7:33 AM 59.0 °F 57.2 °F 94% 29.89 in 10.0 mi Calm Calm - N/A   Clear
7:35 AM 59.4 °F 57.4 °F 93% 29.89 in 10.0 mi SSW 3.5 mph - N/A   Clear
7:55 AM 61.3 °F 58.3 °F 90% 29.90 in 10.0 mi WSW 5.8 mph - N/A   Clear
8:15 AM 63.0 °F 58.8 °F 86% 29.90 in 10.0 mi SW 4.6 mph - N/A   Clear
8:35 AM 62.6 °F 58.6 °F 87% 29.91 in 10.0 mi SW 3.5 mph - N/A   Scattered Clouds
8:55 AM 62.6 °F 58.6 °F 87% 29.92 in 10.0 mi WSW 4.6 mph - N/A   Mostly Cloudy
9:15 AM 63.5 °F 58.1 °F 83% 29.92 in 10.0 mi WSW 9.2 mph - N/A   Scattered Clouds
9:35 AM 63.9 °F 57.6 °F 80% 29.91 in 10.0 mi WSW 10.4 mph - N/A   Scattered Clouds
9:55 AM 65.3 °F 57.2 °F 75% 29.91 in 10.0 mi West 9.2 mph - N/A   Clear
10:15 AM 67.8 °F 57.4 °F 69% 29.91 in 10.0 mi West 10.4 mph - N/A   Clear
10:35 AM 67.5 °F 56.3 °F 67% 29.91 in 10.0 mi NW 9.2 mph - N/A   Scattered Clouds
10:55 AM 68.4 °F 57.0 °F 67% 29.91 in 10.0 mi NW 5.8 mph - N/A   Mostly Cloudy
11:35 AM 70.2 °F 56.3 °F 61% 29.91 in 10.0 mi West 5.8 mph - N/A   Mostly Cloudy
11:55 AM 72.9 °F 55.6 °F 55% 29.91 in 10.0 mi West 8.1 mph - N/A   Scattered Clouds
12:15 PM 75.2 °F 54.0 °F 47% 29.91 in 10.0 mi WSW 8.1 mph - N/A   Clear
1:10 PM 76.5 °F 48.0 °F 37% 29.90 in 10.0 mi West 11.5 mph - N/A   Scattered Clouds
1:35 PM 77.0 °F 47.8 °F 36% 29.91 in 10.0 mi WNW 9.2 mph - N/A   Clear
1:55 PM 77.5 °F 49.1 °F 37% 29.91 in 10.0 mi West 5.8 mph - N/A   Clear
2:15 PM 78.1 °F 48.7 °F 36% 29.91 in 10.0 mi WSW 9.2 mph - N/A   Clear
2:35 PM 78.4 °F 49.6 °F 36% 29.91 in 10.0 mi West 8.1 mph - N/A   Scattered Clouds
2:55 PM 79.0 °F 49.6 °F 36% 29.91 in 10.0 mi West 8.1 mph - N/A   Clear
3:35 PM 79.3 °F 49.5 °F 35% 29.91 in 10.0 mi WNW 10.4 mph - N/A   Scattered Clouds
3:55 PM 77.2 °F 50.7 °F 39% 29.91 in 10.0 mi West 9.2 mph - N/A   Clear
4:15 PM 78.1 °F 51.8 °F 40% 29.91 in 10.0 mi West 8.1 mph - N/A   Clear
4:35 PM 79.0 °F 52.7 °F 40% 29.91 in 10.0 mi West 10.4 mph - N/A   Scattered Clouds
4:55 PM 77.9 °F 53.2 °F 42% 29.91 in 10.0 mi West 6.9 mph - N/A   Scattered Clouds
5:15 PM 77.9 °F 50.5 °F 38% 29.90 in 10.0 mi WNW 9.2 mph - N/A   Scattered Clouds
5:35 PM 77.2 °F 51.1 °F 40% 29.90 in 10.0 mi WNW 9.2 mph - N/A   Scattered Clouds
5:55 PM 77.0 °F 52.5 °F 42% 29.90 in 10.0 mi West 6.9 mph - N/A   Clear
6:15 PM 75.6 °F 52.7 °F 45% 29.90 in 10.0 mi West 4.6 mph - N/A   Clear
6:35 PM 74.5 °F 53.4 °F 48% 29.90 in 10.0 mi WNW 5.8 mph - N/A   Clear
6:50 PM 73.6 °F 53.6 °F 50% 29.90 in 10.0 mi WNW 3.5 mph - N/A   Clear
7:15 PM 71.1 °F 55.4 °F 58% 29.90 in 10.0 mi Calm Calm - N/A   Clear
7:35 PM 68.9 °F 56.1 °F 64% 29.91 in 10.0 mi Calm Calm - N/A   Clear
7:55 PM 67.1 °F 56.3 °F 68% 29.91 in 10.0 mi WSW 3.5 mph - N/A   Clear
8:15 PM 67.3 °F 55.8 °F 66% 29.91 in 10.0 mi Calm Calm - N/A   Clear
8:55 PM 62.1 °F 56.3 °F 81% 29.92 in 10.0 mi Calm Calm - N/A   Clear
9:15 PM 62.1 °F 56.8 °F 83% 29.92 in 10.0 mi Calm Calm - N/A   Clear
9:35 PM 62.2 °F 56.8 °F 82% 29.92 in 10.0 mi Calm Calm - N/A   Clear
9:55 PM 61.5 °F 56.3 °F 83% 29.92 in 10.0 mi Calm Calm - N/A   Clear
10:15 PM 61.3 °F 55.9 °F 82% 29.93 in 10.0 mi Calm Calm - N/A   Clear
10:35 PM 61.2 °F 55.9 °F 83% 29.94 in 10.0 mi Calm Calm - N/A   Clear
11:15 PM 61.7 °F 55.8 °F 81% 29.95 in 10.0 mi Calm Calm - N/A   Clear
11:35 PM 60.8 °F 55.6 °F 83% 29.95 in 10.0 mi SSE 3.5 mph - N/A   Clear
11:55 PM 60.8 °F 55.4 °F 82% 29.95 in 10.0 mi Calm Calm - N/A   Clear